Wetterdaten: Samstag, 22.11.2014
Datum Zeit Temperatur Luftfeuchte Luftdruck Regen Wind Richtung Richtung Taupunkt Windchill Windben
22.11.2014 00:00 4,9 C 96 % 1020,6 hPa 0,0 l/m 0,0 km/h (0 Bft) SO 135 4,3 C 7,8 C 0,0 km/h (0 Bft)
22.11.2014 00:05 4,9 C 96 % 1020,6 hPa 0,0 l/m 0,0 km/h (0 Bft) SO 135 4,3 C 7,8 C 0,0 km/h (0 Bft)
22.11.2014 00:10 4,9 C 96 % 1020,6 hPa 0,0 l/m 0,0 km/h (0 Bft) SO 135 4,3 C 7,8 C 0,0 km/h (0 Bft)
22.11.2014 00:15 4,9 C 96 % 1020,6 hPa 0,0 l/m 0,0 km/h (0 Bft) SO 135 4,3 C 7,8 C 0,0 km/h (0 Bft)
22.11.2014 00:20 4,9 C 96 % 1020,8 hPa 0,0 l/m 0,0 km/h (0 Bft) SO 135 4,3 C 7,8 C 0,0 km/h (0 Bft)
22.11.2014 00:25 5,0 C 96 % 1020,8 hPa 0,0 l/m 0,0 km/h (0 Bft) SO 135 4,4 C 7,8 C 0,0 km/h (0 Bft)
22.11.2014 00:30 5,0 C 96 % 1020,8 hPa 0,0 l/m 0,0 km/h (0 Bft) SO 135 4,4 C 7,8 C 0,0 km/h (0 Bft)
22.11.2014 00:35 4,9 C 96 % 1020,8 hPa 0,0 l/m 0,0 km/h (0 Bft) SO 135 4,3 C 7,8 C 0,0 km/h (0 Bft)
22.11.2014 00:40 4,9 C 96 % 1020,5 hPa 0,0 l/m 0,0 km/h (0 Bft) SO 135 4,3 C 7,8 C 0,0 km/h (0 Bft)
22.11.2014 00:45 4,9 C 96 % 1020,5 hPa 0,0 l/m 0,0 km/h (0 Bft) SO 135 4,3 C 7,8 C 0,0 km/h (0 Bft)
22.11.2014 00:50 4,9 C 96 % 1020,5 hPa 0,0 l/m 0,0 km/h (0 Bft) SO 135 4,3 C 7,8 C 0,0 km/h (0 Bft)
22.11.2014 00:55 4,9 C 96 % 1020,5 hPa 0,0 l/m 0,0 km/h (0 Bft) SO 135 4,3 C 7,8 C 0,0 km/h (0 Bft)
22.11.2014 01:00 5,0 C 96 % 1020,6 hPa 0,0 l/m 0,0 km/h (0 Bft) SO 135 4,4 C 7,8 C 0,0 km/h (0 Bft)
22.11.2014 01:05 5,1 C 96 % 1020,6 hPa 0,0 l/m 0,0 km/h (0 Bft) SO 135 4,5 C 7,8 C 0,0 km/h (0 Bft)
22.11.2014 01:10 5,1 C 96 % 1020,6 hPa 0,0 l/m 0,0 km/h (0 Bft) SO 135 4,5 C 7,8 C 0,0 km/h (0 Bft)
22.11.2014 01:15 5,0 C 96 % 1020,6 hPa 0,0 l/m 0,0 km/h (0 Bft) SO 135 4,4 C 7,8 C 0,0 km/h (0 Bft)
22.11.2014 01:20 5,0 C 96 % 1020,4 hPa 0,0 l/m 0,0 km/h (0 Bft) SO 135 4,4 C 7,8 C 0,0 km/h (0 Bft)
22.11.2014 01:25 5,0 C 96 % 1020,4 hPa 0,0 l/m 0,0 km/h (0 Bft) SO 135 4,4 C 7,8 C 0,0 km/h (0 Bft)
22.11.2014 01:30 4,9 C 96 % 1020,4 hPa 0,0 l/m 0,0 km/h (0 Bft) SO 135 4,3 C 7,8 C 0,0 km/h (0 Bft)
22.11.2014 01:35 4,9 C 96 % 1020,4 hPa 0,0 l/m 0,0 km/h (0 Bft) SO 135 4,3 C 7,8 C 0,0 km/h (0 Bft)
22.11.2014 01:40 4,9 C 96 % 1020,7 hPa 0,0 l/m 0,0 km/h (0 Bft) SO 135 4,3 C 7,8 C 0,0 km/h (0 Bft)
22.11.2014 01:45 4,8 C 96 % 1020,7 hPa 0,0 l/m 0,0 km/h (0 Bft) SO 135 4,2 C 7,8 C 0,0 km/h (0 Bft)
22.11.2014 01:50 5,1 C 96 % 1020,7 hPa 0,0 l/m 0,0 km/h (0 Bft) SO 135 4,5 C 7,8 C 0,0 km/h (0 Bft)
22.11.2014 01:55 5,0 C 96 % 1020,7 hPa 0,0 l/m 0,0 km/h (0 Bft) SO 135 4,4 C 7,8 C 0,0 km/h (0 Bft)
22.11.2014 02:00 5,0 C 96 % 1020,7 hPa 0,0 l/m 0,0 km/h (0 Bft) SO 135 4,4 C 7,8 C 0,0 km/h (0 Bft)
22.11.2014 02:05 4,8 C 96 % 1020,7 hPa 0,0 l/m 0,0 km/h (0 Bft) SO 135 4,2 C 7,8 C 0,0 km/h (0 Bft)
22.11.2014 02:10 4,7 C 96 % 1020,7 hPa 0,0 l/m 0,0 km/h (0 Bft) SO 135 4,1 C 7,8 C 0,0 km/h (0 Bft)
22.11.2014 02:15 4,6 C 96 % 1020,7 hPa 0,0 l/m 0,0 km/h (0 Bft) SO 135 4,0 C 7,8 C 0,0 km/h (0 Bft)
22.11.2014 02:20 4,5 C 96 % 1020,9 hPa 0,0 l/m 0,0 km/h (0 Bft) SO 135 3,9 C 7,8 C 0,0 km/h (0 Bft)
22.11.2014 02:25 4,4 C 96 % 1020,9 hPa 0,0 l/m 0,0 km/h (0 Bft) SO 135 3,8 C 7,8 C 0,0 km/h (0 Bft)
22.11.2014 02:30 4,2 C 96 % 1020,9 hPa 0,0 l/m 0,0 km/h (0 Bft) SO 135 3,6 C 7,8 C 0,0 km/h (0 Bft)
22.11.2014 02:35 4,0 C 96 % 1020,9 hPa 0,0 l/m 0,0 km/h (0 Bft) SO 135 3,4 C 7,8 C 0,0 km/h (0 Bft)
22.11.2014 02:38 3,7 C 96 % 1020,7 hPa 0,0 l/m 0,0 km/h (0 Bft) SO 135 3,1 C 7,8 C 0,0 km/h (0 Bft)
22.11.2014 02:40 3,7 C 96 % 1020,7 hPa 0,0 l/m 0,0 km/h (0 Bft) SO 135 3,1 C 7,8 C 0,0 km/h (0 Bft)
22.11.2014 02:45 3,9 C 96 % 1020,7 hPa 0,0 l/m 0,0 km/h (0 Bft) SO 135 3,3 C 7,8 C 0,0 km/h (0 Bft)
22.11.2014 02:50 4,0 C 96 % 1020,7 hPa 0,0 l/m 0,0 km/h (0 Bft) SO 135 3,4 C 7,8 C 0,0 km/h (0 Bft)
22.11.2014 02:55 4,4 C 96 % 1020,7 hPa 0,0 l/m 0,0 km/h (0 Bft) SO 135 3,8 C 7,8 C 0,0 km/h (0 Bft)
22.11.2014 03:00 4,3 C 96 % 1020,7 hPa 0,0 l/m 0,0 km/h (0 Bft) SO 135 3,7 C 7,8 C 0,0 km/h (0 Bft)
22.11.2014 03:05 4,2 C 96 % 1020,7 hPa 0,0 l/m 0,0 km/h (0 Bft) SO 135 3,6 C 7,8 C 0,0 km/h (0 Bft)
22.11.2014 03:10 4,3 C 96 % 1020,7 hPa 0,0 l/m 0,0 km/h (0 Bft) SO 135 3,7 C 7,8 C 0,0 km/h (0 Bft)
22.11.2014 03:15 4,3 C 96 % 1020,7 hPa 0,0 l/m 0,0 km/h (0 Bft) SO 135 3,7 C 7,8 C 0,0 km/h (0 Bft)
22.11.2014 03:20 4,3 C 96 % 1020,6 hPa 0,0 l/m 0,0 km/h (0 Bft) SO 135 3,7 C 7,8 C 0,0 km/h (0 Bft)
22.11.2014 03:25 4,2 C 96 % 1020,6 hPa 0,0 l/m 0,0 km/h (0 Bft) SO 135 3,6 C 7,8 C 0,0 km/h (0 Bft)
22.11.2014 03:30 4,3 C 96 % 1020,6 hPa 0,0 l/m 0,0 km/h (0 Bft) SO 135 3,7 C 7,8 C 0,0 km/h (0 Bft)
22.11.2014 03:35 4,3 C 96 % 1020,6 hPa 0,0 l/m 0,0 km/h (0 Bft) SO 135 3,7 C 7,8 C 0,0 km/h (0 Bft)
22.11.2014 03:40 4,5 C 96 % 1020,8 hPa 0,0 l/m 0,0 km/h (0 Bft) SO 135 3,9 C 7,8 C 0,0 km/h (0 Bft)
22.11.2014 03:45 4,6 C 96 % 1020,8 hPa 0,0 l/m 0,0 km/h (0 Bft) SO 135 4,0 C 7,8 C 0,0 km/h (0 Bft)
22.11.2014 03:50 4,5 C 96 % 1020,8 hPa 0,0 l/m 0,0 km/h (0 Bft) SO 135 3,9 C 7,8 C 0,0 km/h (0 Bft)
22.11.2014 03:55 4,5 C 96 % 1020,8 hPa 0,0 l/m 0,0 km/h (0 Bft) SO 135 3,9 C 7,8 C 0,0 km/h (0 Bft)
22.11.2014 04:00 4,4 C 96 % 1020,6 hPa 0,0 l/m 0,0 km/h (0 Bft) SO 135 3,8 C 7,8 C 0,0 km/h (0 Bft)
22.11.2014 04:05 4,3 C 96 % 1020,6 hPa 0,0 l/m 0,0 km/h (0 Bft) SO 135 3,7 C 7,8 C 0,0 km/h (0 Bft)
22.11.2014 04:10 4,2 C 96 % 1020,6 hPa 0,0 l/m 0,0 km/h (0 Bft) SO 135 3,6 C 7,8 C 0,0 km/h (0 Bft)
22.11.2014 04:15 4,0 C 96 % 1020,6 hPa 0,0 l/m 0,0 km/h (0 Bft) SO 135 3,4 C 7,8 C 0,0 km/h (0 Bft)
22.11.2014 04:20 4,0 C 96 % 1020,6 hPa 0,0 l/m 0,0 km/h (0 Bft) SO 135 3,4 C 7,8 C 0,0 km/h (0 Bft)
22.11.2014 04:25 3,5 C 96 % 1020,6 hPa 0,0 l/m 0,0 km/h (0 Bft) SO 135 2,9 C 7,8 C 0,0 km/h (0 Bft)
22.11.2014 04:30 3,3 C 96 % 1020,6 hPa 0,0 l/m 0,0 km/h (0 Bft) SO 135 2,7 C 7,8 C 0,0 km/h (0 Bft)
22.11.2014 04:35 3,4 C 96 % 1020,6 hPa 0,0 l/m 0,0 km/h (0 Bft) SO 135 2,8 C 7,8 C 0,0 km/h (0 Bft)
22.11.2014 04:40 3,3 C 96 % 1020,7 hPa 0,0 l/m 0,0 km/h (0 Bft) SO 135 2,7 C 7,8 C 0,0 km/h (0 Bft)
22.11.2014 04:45 3,4 C 96 % 1020,7 hPa 0,0 l/m 0,0 km/h (0 Bft) SO 135 2,8 C 7,8 C 0,0 km/h (0 Bft)
22.11.2014 04:50 3,3 C 96 % 1020,7 hPa 0,0 l/m 0,0 km/h (0 Bft) SO 135 2,7 C 7,8 C 0,0 km/h (0 Bft)
22.11.2014 04:55 3,1 C 96 % 1020,7 hPa 0,0 l/m 0,0 km/h (0 Bft) SO 135 2,5 C 7,8 C 0,0 km/h (0 Bft)
22.11.2014 05:00 3,1 C 96 % 1020,7 hPa 0,0 l/m 0,0 km/h (0 Bft) SO 135 2,5 C 7,8 C 0,0 km/h (0 Bft)
22.11.2014 05:05 3,0 C 96 % 1020,7 hPa 0,0 l/m 0,0 km/h (0 Bft) SO 135 2,4 C 7,8 C 0,0 km/h (0 Bft)
22.11.2014 05:10 3,3 C 96 % 1020,7 hPa 0,0 l/m 0,0 km/h (0 Bft) SO 135 2,7 C 7,8 C 0,0 km/h (0 Bft)
22.11.2014 05:15 3,6 C 96 % 1020,7 hPa 0,0 l/m 0,0 km/h (0 Bft) SO 135 3,0 C 7,8 C 0,0 km/h (0 Bft)
22.11.2014 05:20 3,4 C 96 % 1020,9 hPa 0,0 l/m 0,0 km/h (0 Bft) SO 135 2,8 C 7,8 C 0,0 km/h (0 Bft)
22.11.2014 05:25 3,3 C 96 % 1020,9 hPa 0,0 l/m 0,0 km/h (0 Bft) SO 135 2,7 C 7,8 C 0,0 km/h (0 Bft)
22.11.2014 05:30 3,2 C 96 % 1020,9 hPa 0,0 l/m 0,0 km/h (0 Bft) SO 135 2,6 C 7,8 C 0,0 km/h (0 Bft)
22.11.2014 05:35 3,3 C 96 % 1020,9 hPa 0,0 l/m 0,0 km/h (0 Bft) SO 135 2,7 C 7,8 C 0,0 km/h (0 Bft)
22.11.2014 05:38 3,3 C 96 % 1021,1 hPa 0,0 l/m 0,0 km/h (0 Bft) SO 135 2,7 C 7,8 C 0,0 km/h (0 Bft)
22.11.2014 05:40 3,3 C 96 % 1021,1 hPa 0,0 l/m 0,0 km/h (0 Bft) SO 135 2,7 C 7,8 C 0,0 km/h (0 Bft)
22.11.2014 05:45 3,4 C 96 % 1021,1 hPa 0,0 l/m 0,0 km/h (0 Bft) SO 135 2,8 C 7,8 C 0,0 km/h (0 Bft)
22.11.2014 05:50 3,7 C 96 % 1021,1 hPa 0,0 l/m 0,0 km/h (0 Bft) SO 135 3,1 C 7,8 C 0,0 km/h (0 Bft)
22.11.2014 05:55 4,0 C 96 % 1021,1 hPa 0,0 l/m 0,0 km/h (0 Bft) SO 135 3,4 C 7,8 C 0,0 km/h (0 Bft)
22.11.2014 06:00 4,1 C 96 % 1021,1 hPa 0,0 l/m 0,0 km/h (0 Bft) SO 135 3,5 C 7,8 C 0,0 km/h (0 Bft)
22.11.2014 06:05 4,1 C 96 % 1021,1 hPa 0,0 l/m 0,0 km/h (0 Bft) SO 135 3,5 C 7,8 C 0,0 km/h (0 Bft)
22.11.2014 06:10 4,4 C 96 % 1021,1 hPa 0,0 l/m 0,0 km/h (0 Bft) SO 135 3,8 C 7,8 C 0,0 km/h (0 Bft)
22.11.2014 06:15 5,0 C 96 % 1021,1 hPa 0,0 l/m 0,0 km/h (0 Bft) SO 135 4,4 C 7,8 C 0,0 km/h (0 Bft)
22.11.2014 06:20 5,2 C 96 % 1020,9 hPa 0,0 l/m 0,0 km/h (0 Bft) SO 135 4,6 C 7,8 C 0,0 km/h (0 Bft)
22.11.2014 06:25 4,8 C 96 % 1020,9 hPa 0,0 l/m 0,0 km/h (0 Bft) SO 135 4,2 C 7,8 C 0,0 km/h (0 Bft)
22.11.2014 06:30 4,7 C 96 % 1020,9 hPa 0,0 l/m 0,0 km/h (0 Bft) SO 135 4,1 C 7,8 C 0,0 km/h (0 Bft)
22.11.2014 06:35 4,6 C 96 % 1020,9 hPa 0,0 l/m 0,0 km/h (0 Bft) SO 135 4,0 C 7,8 C 0,0 km/h (0 Bft)
22.11.2014 06:40 4,6 C 96 % 1020,8 hPa 0,0 l/m 0,0 km/h (0 Bft) SO 135 4,0 C 7,8 C 0,0 km/h (0 Bft)
22.11.2014 06:45 4,7 C 96 % 1020,8 hPa 0,0 l/m 0,0 km/h (0 Bft) SO 135 4,1 C 7,8 C 0,0 km/h (0 Bft)
22.11.2014 06:50 4,7 C 96 % 1020,8 hPa 0,0 l/m 0,0 km/h (0 Bft) SO 135 4,1 C 7,8 C 0,0 km/h (0 Bft)
22.11.2014 06:55 4,8 C 96 % 1020,8 hPa 0,0 l/m 0,0 km/h (0 Bft) SO 135 4,2 C 7,8 C 0,0 km/h (0 Bft)
22.11.2014 07:00 4,9 C 96 % 1021,1 hPa 0,0 l/m 0,0 km/h (0 Bft) SO 135 4,3 C 7,8 C 0,0 km/h (0 Bft)
22.11.2014 07:05 4,6 C 96 % 1021,1 hPa 0,0 l/m 0,0 km/h (0 Bft) SO 135 4,0 C 7,8 C 0,0 km/h (0 Bft)
22.11.2014 07:10 4,5 C 96 % 1021,1 hPa 0,0 l/m 0,0 km/h (0 Bft) SO 135 3,9 C 7,8 C 0,0 km/h (0 Bft)
22.11.2014 07:15 4,5 C 96 % 1021,1 hPa 0,0 l/m 0,0 km/h (0 Bft) SO 135 3,9 C 7,8 C 0,0 km/h (0 Bft)
22.11.2014 07:20 4,5 C 96 % 1021,2 hPa 0,0 l/m 0,0 km/h (0 Bft) SO 135 3,9 C 7,8 C 0,0 km/h (0 Bft)
22.11.2014 07:25 4,6 C 96 % 1021,2 hPa 0,0 l/m 0,0 km/h (0 Bft) SO 135 4,0 C 7,8 C 0,0 km/h (0 Bft)
22.11.2014 07:30 4,6 C 96 % 1021,2 hPa 0,0 l/m 0,0 km/h (0 Bft) SO 135 4,0 C 7,8 C 0,0 km/h (0 Bft)
22.11.2014 07:35 4,6 C 96 % 1021,2 hPa 0,0 l/m 0,0 km/h (0 Bft) SO 135 4,0 C 7,8 C 0,0 km/h (0 Bft)
22.11.2014 07:40 4,6 C 96 % 1021,2 hPa 0,0 l/m 0,0 km/h (0 Bft) SO 135 4,0 C 7,8 C 0,0 km/h (0 Bft)
22.11.2014 07:45 4,7 C 96 % 1021,2 hPa 0,0 l/m 0,0 km/h (0 Bft) SO 135 4,1 C 7,8 C 0,0 km/h (0 Bft)
22.11.2014 07:50 4,7 C 96 % 1021,2 hPa 0,0 l/m 0,0 km/h (0 Bft) SO 135 4,1 C 7,8 C 0,0 km/h (0 Bft)
22.11.2014 07:55 4,8 C 96 % 1021,2 hPa 0,0 l/m 0,0 km/h (0 Bft) SO 135 4,2 C 7,8 C 0,0 km/h (0 Bft)
22.11.2014 08:00 4,8 C 96 % 1021,6 hPa 0,0 l/m 0,0 km/h (0 Bft) SO 135 4,2 C 7,8 C 0,0 km/h (0 Bft)
22.11.2014 08:05 5,3 C 96 % 1021,6 hPa 0,0 l/m 0,0 km/h (0 Bft) SO 135 4,7 C 7,8 C 0,0 km/h (0 Bft)
22.11.2014 08:10 5,2 C 96 % 1021,6 hPa 0,0 l/m 0,0 km/h (0 Bft) SO 135 4,6 C 7,8 C 0,0 km/h (0 Bft)
22.11.2014 08:15 5,0 C 96 % 1021,6 hPa 0,0 l/m 0,0 km/h (0 Bft) SO 135 4,4 C 7,8 C 0,0 km/h (0 Bft)
22.11.2014 08:20 4,9 C 96 % 1021,5 hPa 0,0 l/m 0,0 km/h (0 Bft) SO 135 4,3 C 7,8 C 0,0 km/h (0 Bft)
22.11.2014 08:25 5,0 C 96 % 1021,5 hPa 0,0 l/m 0,0 km/h (0 Bft) SO 135 4,4 C 7,8 C 0,0 km/h (0 Bft)
22.11.2014 08:30 5,4 C 96 % 1021,5 hPa 0,0 l/m 0,0 km/h (0 Bft) SO 135 4,8 C 7,8 C 0,0 km/h (0 Bft)
22.11.2014 08:35 5,6 C 96 % 1021,5 hPa 0,0 l/m 0,0 km/h (0 Bft) SO 135 5,0 C 7,8 C 0,0 km/h (0 Bft)
22.11.2014 08:38 5,7 C 96 % 1021,2 hPa 0,0 l/m 0,0 km/h (0 Bft) SO 135 5,1 C 7,8 C 0,0 km/h (0 Bft)
22.11.2014 08:40 5,7 C 96 % 1021,2 hPa 0,0 l/m 0,0 km/h (0 Bft) SO 135 5,1 C 7,8 C 0,0 km/h (0 Bft)
22.11.2014 08:45 5,6 C 96 % 1021,2 hPa 0,0 l/m 0,0 km/h (0 Bft) SO 135 5,0 C 7,8 C 0,0 km/h (0 Bft)
22.11.2014 08:50 5,8 C 96 % 1021,2 hPa 0,0 l/m 0,0 km/h (0 Bft) SO 135 5,2 C 7,8 C 0,0 km/h (0 Bft)
22.11.2014 08:55 6,0 C 95 % 1021,2 hPa 0,0 l/m 0,0 km/h (0 Bft) SO 135 5,3 C 7,8 C 0,0 km/h (0 Bft)
22.11.2014 09:00 5,9 C 96 % 1021,8 hPa 0,0 l/m 0,0 km/h (0 Bft) SO 135 5,3 C 7,8 C 0,0 km/h (0 Bft)
22.11.2014 09:05 6,1 C 95 % 1021,8 hPa 0,0 l/m 0,0 km/h (0 Bft) SO 135 5,4 C 7,8 C 0,0 km/h (0 Bft)
22.11.2014 09:10 6,4 C 95 % 1021,8 hPa 0,0 l/m 0,0 km/h (0 Bft) SO 135 5,7 C 7,8 C 0,0 km/h (0 Bft)
22.11.2014 09:15 6,6 C 95 % 1021,8 hPa 0,0 l/m 0,0 km/h (0 Bft) SO 135 5,9 C 7,8 C 0,0 km/h (0 Bft)
22.11.2014 09:20 6,8 C 95 % 1021,8 hPa 0,0 l/m 0,0 km/h (0 Bft) SO 135 6,1 C 7,8 C 0,0 km/h (0 Bft)
22.11.2014 09:25 6,9 C 95 % 1021,8 hPa 0,0 l/m 0,0 km/h (0 Bft) SO 135 6,2 C 7,8 C 0,0 km/h (0 Bft)
22.11.2014 09:30 7,1 C 95 % 1021,8 hPa 0,0 l/m 0,0 km/h (0 Bft) SO 135 6,4 C 7,8 C 0,0 km/h (0 Bft)
22.11.2014 09:35 7,2 C 95 % 1021,8 hPa 0,0 l/m 0,0 km/h (0 Bft) SO 135 6,5 C 7,8 C 0,0 km/h (0 Bft)
22.11.2014 09:40 7,3 C 95 % 1022,1 hPa 0,0 l/m 0,0 km/h (0 Bft) SO 135 6,6 C 7,8 C 0,0 km/h (0 Bft)
22.11.2014 09:45 7,6 C 95 % 1022,1 hPa 0,0 l/m 0,0 km/h (0 Bft) SO 135 6,9 C 7,8 C 0,0 km/h (0 Bft)
22.11.2014 09:50 7,8 C 95 % 1022,1 hPa 0,0 l/m 0,0 km/h (0 Bft) SO 135 7,0 C 7,8 C 0,0 km/h (0 Bft)
22.11.2014 09:55 7,8 C 95 % 1022,1 hPa 0,0 l/m 0,0 km/h (0 Bft) SO 135 7,0 C 7,8 C 0,0 km/h (0 Bft)
22.11.2014 10:00 8,1 C 94 % 1022,4 hPa 0,0 l/m 0,0 km/h (0 Bft) SO 135 7,2 C 7,8 C 0,0 km/h (0 Bft)
22.11.2014 10:05 8,7 C 94 % 1022,4 hPa 0,0 l/m 0,0 km/h (0 Bft) SO 135 7,8 C 7,8 C 0,0 km/h (0 Bft)
22.11.2014 10:10 8,8 C 94 % 1022,4 hPa 0,0 l/m 0,0 km/h (0 Bft) SO 135 7,9 C 7,8 C 0,0 km/h (0 Bft)
22.11.2014 10:15 9,1 C 93 % 1022,4 hPa 0,0 l/m 0,0 km/h (0 Bft) SO 135 8,0 C 7,8 C 0,0 km/h (0 Bft)
22.11.2014 10:20 9,6 C 93 % 1022,2 hPa 0,0 l/m 0,0 km/h (0 Bft) SO 135 8,5 C 7,8 C 0,0 km/h (0 Bft)
22.11.2014 10:25 9,7 C 93 % 1022,2 hPa 0,0 l/m 0,0 km/h (0 Bft) SO 135 8,6 C 7,8 C 0,0 km/h (0 Bft)
22.11.2014 10:30 9,7 C 92 % 1022,2 hPa 0,0 l/m 0,0 km/h (0 Bft) SO 135 8,5 C 7,8 C 0,0 km/h (0 Bft)
22.11.2014 10:35 10,1 C 92 % 1022,2 hPa 0,0 l/m 0,0 km/h (0 Bft) SO 135 8,9 C 7,8 C 0,0 km/h (0 Bft)
22.11.2014 10:40 10,1 C 92 % 1022,3 hPa 0,0 l/m 0,0 km/h (0 Bft) SO 135 8,9 C 7,8 C 0,0 km/h (0 Bft)
22.11.2014 10:45 10,1 C 91 % 1022,3 hPa 0,0 l/m 0,0 km/h (0 Bft) SO 135 8,7 C 7,8 C 0,0 km/h (0 Bft)
22.11.2014 10:50 10,1 C 90 % 1022,3 hPa 0,0 l/m 0,0 km/h (0 Bft) SO 135 8,5 C 7,8 C 0,0 km/h (0 Bft)
22.11.2014 10:55 10,1 C 90 % 1022,3 hPa 0,0 l/m 0,0 km/h (0 Bft) SO 135 8,5 C 7,8 C 0,0 km/h (0 Bft)
22.11.2014 11:00 10,1 C 89 % 1022,5 hPa 0,0 l/m 0,0 km/h (0 Bft) SO 135 8,4 C 7,8 C 0,0 km/h (0 Bft)
22.11.2014 11:05 10,2 C 89 % 1022,5 hPa 0,0 l/m 0,0 km/h (0 Bft) SO 135 8,5 C 7,8 C 0,0 km/h (0 Bft)
22.11.2014 11:10 10,3 C 89 % 1022,5 hPa 0,0 l/m 0,0 km/h (0 Bft) SO 135 8,6 C 7,8 C 0,0 km/h (0 Bft)
22.11.2014 11:15 10,4 C 89 % 1022,5 hPa 0,0 l/m 0,0 km/h (0 Bft) SO 135 8,7 C 7,8 C 0,0 km/h (0 Bft)
22.11.2014 11:20 10,5 C 89 % 1022,6 hPa 0,0 l/m 0,0 km/h (0 Bft) SO 135 8,8 C 7,8 C 0,0 km/h (0 Bft)
22.11.2014 11:25 10,6 C 89 % 1022,6 hPa 0,0 l/m 0,0 km/h (0 Bft) SO 135 8,9 C 7,8 C 0,0 km/h (0 Bft)
22.11.2014 11:30 10,7 C 89 % 1022,6 hPa 0,0 l/m 0,0 km/h (0 Bft) SO 135 9,0 C 7,8 C 0,0 km/h (0 Bft)
22.11.2014 11:35 10,9 C 90 % 1022,6 hPa 0,0 l/m 0,0 km/h (0 Bft) SO 135 9,3 C 7,8 C 0,0 km/h (0 Bft)
22.11.2014 11:40 10,9 C 89 % 1022,4 hPa 0,0 l/m 0,0 km/h (0 Bft) SO 135 9,2 C 7,8 C 0,0 km/h (0 Bft)
22.11.2014 11:45 11,0 C 89 % 1022,4 hPa 0,0 l/m 0,0 km/h (0 Bft) SO 135 9,3 C 7,8 C 0,0 km/h (0 Bft)
22.11.2014 11:50 11,0 C 89 % 1022,4 hPa 0,0 l/m 0,0 km/h (0 Bft) SO 135 9,3 C 7,8 C 0,0 km/h (0 Bft)
22.11.2014 11:55 10,9 C 88 % 1022,4 hPa 0,0 l/m 0,0 km/h (0 Bft) SO 135 9,0 C 7,8 C 0,0 km/h (0 Bft)
22.11.2014 12:00 10,9 C 87 % 1022,1 hPa 0,0 l/m 0,0 km/h (0 Bft) SO 135 8,8 C 7,8 C 0,0 km/h (0 Bft)
22.11.2014 12:05 10,8 C 87 % 1022,1 hPa 0,0 l/m 0,0 km/h (0 Bft) SO 135 8,7 C 7,8 C 0,0 km/h (0 Bft)
22.11.2014 12:10 10,9 C 87 % 1022,1 hPa 0,0 l/m 0,0 km/h (0 Bft) SO 135 8,8 C 7,8 C 0,0 km/h (0 Bft)
22.11.2014 12:15 10,8 C 87 % 1022,1 hPa 0,0 l/m 0,0 km/h (0 Bft) SO 135 8,7 C 7,8 C 0,0 km/h (0 Bft)
22.11.2014 12:20 10,8 C 87 % 1021,9 hPa 0,0 l/m 0,0 km/h (0 Bft) SO 135 8,7 C 7,8 C 0,0 km/h (0 Bft)
22.11.2014 12:25 10,7 C 87 % 1021,9 hPa 0,0 l/m 0,0 km/h (0 Bft) SO 135 8,6 C 7,8 C 0,0 km/h (0 Bft)
22.11.2014 12:30 10,7 C 87 % 1021,9 hPa 0,0 l/m 0,0 km/h (0 Bft) SO 135 8,6 C 7,8 C 0,0 km/h (0 Bft)
22.11.2014 12:35 10,7 C 86 % 1021,9 hPa 0,0 l/m 0,0 km/h (0 Bft) SO 135 8,5 C 7,8 C 0,0 km/h (0 Bft)
22.11.2014 12:40 11,0 C 82 % 1022,1 hPa 0,0 l/m 0,0 km/h (0 Bft) SO 135 8,0 C 7,8 C 0,0 km/h (0 Bft)
22.11.2014 12:45 10,6 C 82 % 1022,1 hPa 0,0 l/m 0,0 km/h (0 Bft) SO 135 7,7 C 7,8 C 0,0 km/h (0 Bft)
22.11.2014 12:50 10,6 C 80 % 1022,1 hPa 0,0 l/m 0,0 km/h (0 Bft) SO 135 7,3 C 7,8 C 0,0 km/h (0 Bft)
22.11.2014 12:55 10,7 C 79 % 1022,1 hPa 0,0 l/m 0,0 km/h (0 Bft) SO 135 7,2 C 7,8 C 0,0 km/h (0 Bft)
22.11.2014 13:00 10,6 C 80 % 1022,1 hPa 0,0 l/m 0,0 km/h (0 Bft) SO 135 7,3 C 7,8 C 0,0 km/h (0 Bft)
22.11.2014 13:05 10,7 C 79 % 1022,1 hPa 0,0 l/m 0,0 km/h (0 Bft) SO 135 7,2 C 7,8 C 0,0 km/h (0 Bft)
22.11.2014 13:10 10,5 C 79 % 1022,1 hPa 0,0 l/m 0,0 km/h (0 Bft) SO 135 7,0 C 7,8 C 0,0 km/h (0 Bft)
22.11.2014 13:15 10,5 C 78 % 1022,1 hPa 0,0 l/m 0,0 km/h (0 Bft) SO 135 6,8 C 7,8 C 0,0 km/h (0 Bft)
22.11.2014 13:20 10,5 C 79 % 1021,8 hPa 0,0 l/m 0,0 km/h (0 Bft) SO 135 7,0 C 7,8 C 0,0 km/h (0 Bft)
22.11.2014 13:25 10,5 C 78 % 1021,8 hPa 0,0 l/m 0,0 km/h (0 Bft) SO 135 6,8 C 7,8 C 0,0 km/h (0 Bft)
22.11.2014 13:30 10,4 C 78 % 1021,8 hPa 0,0 l/m 0,0 km/h (0 Bft) SO 135 6,7 C 7,8 C 0,0 km/h (0 Bft)
22.11.2014 13:35 10,7 C 77 % 1021,8 hPa 0,0 l/m 0,0 km/h (0 Bft) SO 135 6,8 C 7,8 C 0,0 km/h (0 Bft)
22.11.2014 13:40 10,8 C 77 % 1021,7 hPa 0,0 l/m 0,0 km/h (0 Bft) SO 135 6,9 C 7,8 C 0,0 km/h (0 Bft)
22.11.2014 13:45 11,3 C 76 % 1021,7 hPa 0,0 l/m 0,0 km/h (0 Bft) SO 135 7,2 C 7,8 C 0,0 km/h (0 Bft)
22.11.2014 13:50 11,7 C 69 % 1021,7 hPa 0,0 l/m 0,0 km/h (0 Bft) SO 135 6,2 C 7,8 C 0,0 km/h (0 Bft)
22.11.2014 13:55 12,8 C 71 % 1021,7 hPa 0,0 l/m 0,0 km/h (0 Bft) SO 135 7,7 C 7,8 C 0,0 km/h (0 Bft)
22.11.2014 14:00 13,4 C 66 % 1021,8 hPa 0,0 l/m 0,0 km/h (0 Bft) SO 135 7,2 C 7,8 C 0,0 km/h (0 Bft)
22.11.2014 14:05 13,7 C 63 % 1021,8 hPa 0,0 l/m 0,0 km/h (0 Bft) SO 135 6,8 C 7,8 C 0,0 km/h (0 Bft)
22.11.2014 14:10 13,7 C 63 % 1021,8 hPa 0,0 l/m 0,0 km/h (0 Bft) SO 135 6,8 C 7,8 C 0,0 km/h (0 Bft)
22.11.2014 14:15 13,4 C 62 % 1021,8 hPa 0,0 l/m 0,0 km/h (0 Bft) SO 135 6,3 C 7,8 C 0,0 km/h (0 Bft)
22.11.2014 14:20 13,1 C 60 % 1021,7 hPa 0,0 l/m 0,0 km/h (0 Bft) SO 135 5,5 C 7,8 C 0,0 km/h (0 Bft)
22.11.2014 14:25 12,6 C 62 % 1021,7 hPa 0,0 l/m 0,0 km/h (0 Bft) SO 135 5,5 C 7,8 C 0,0 km/h (0 Bft)
22.11.2014 14:30 12,3 C 63 % 1021,7 hPa 0,0 l/m 0,0 km/h (0 Bft) SO 135 5,5 C 7,8 C 0,0 km/h (0 Bft)
22.11.2014 14:33 11,9 C 65 % 1021,7 hPa 0,0 l/m 0,0 km/h (0 Bft) SO 135 5,5 C 7,8 C 0,0 km/h (0 Bft)
22.11.2014 14:35 11,9 C 65 % 1021,7 hPa 0,0 l/m 0,0 km/h (0 Bft) SO 135 5,5 C 7,8 C 0,0 km/h (0 Bft)
22.11.2014 14:40 11,9 C 66 % 1021,7 hPa 0,0 l/m 0,0 km/h (0 Bft) SO 135 5,8 C 7,8 C 0,0 km/h (0 Bft)
22.11.2014 14:45 11,6 C 66 % 1021,7 hPa 0,0 l/m 0,0 km/h (0 Bft) SO 135 5,5 C 7,8 C 0,0 km/h (0 Bft)
22.11.2014 14:50 11,4 C 67 % 1021,7 hPa 0,0 l/m 0,0 km/h (0 Bft) SO 135 5,5 C 7,8 C 0,0 km/h (0 Bft)
22.11.2014 14:55 11,3 C 68 % 1021,7 hPa 0,0 l/m 0,0 km/h (0 Bft) SO 135 5,6 C 7,8 C 0,0 km/h (0 Bft)
22.11.2014 15:00 11,4 C 68 % 1021,9 hPa 0,0 l/m 0,0 km/h (0 Bft) SO 135 5,7 C 7,8 C 0,0 km/h (0 Bft)
22.11.2014 15:05 10,9 C 69 % 1021,9 hPa 0,0 l/m 0,0 km/h (0 Bft) SO 135 5,4 C 7,8 C 0,0 km/h (0 Bft)
22.11.2014 15:10 10,6 C 70 % 1021,9 hPa 0,0 l/m 0,0 km/h (0 Bft) SO 135 5,4 C 7,8 C 0,0 km/h (0 Bft)
22.11.2014 15:15 10,4 C 72 % 1021,9 hPa 0,0 l/m 0,0 km/h (0 Bft) SO 135 5,6 C 7,8 C 0,0 km/h (0 Bft)
22.11.2014 15:20 10,3 C 72 % 1022,1 hPa 0,0 l/m 0,0 km/h (0 Bft) SO 135 5,5 C 7,8 C 0,0 km/h (0 Bft)
22.11.2014 15:25 9,9 C 73 % 1022,1 hPa 0,0 l/m 0,0 km/h (0 Bft) SO 135 5,3 C 7,8 C 0,0 km/h (0 Bft)
22.11.2014 15:30 9,7 C 74 % 1022,1 hPa 0,0 l/m 0,0 km/h (0 Bft) SO 135 5,3 C 7,8 C 0,0 km/h (0 Bft)
22.11.2014 15:35 9,6 C 75 % 1022,1 hPa 0,0 l/m 0,0 km/h (0 Bft) SO 135 5,4 C 7,8 C 0,0 km/h (0 Bft)
22.11.2014 15:40 9,6 C 76 % 1021,8 hPa 0,0 l/m 0,0 km/h (0 Bft) SO 135 5,6 C 7,8 C 0,0 km/h (0 Bft)
22.11.2014 15:45 9,6 C 77 % 1021,8 hPa 0,0 l/m 0,0 km/h (0 Bft) SO 135 5,8 C 7,8 C 0,0 km/h (0 Bft)
22.11.2014 15:50 9,7 C 77 % 1021,8 hPa 0,0 l/m 0,0 km/h (0 Bft) SO 135 5,9 C 7,8 C 0,0 km/h (0 Bft)
22.11.2014 15:55 9,6 C 77 % 1021,8 hPa 0,0 l/m 0,0 km/h (0 Bft) SO 135 5,8 C 7,8 C 0,0 km/h (0 Bft)
22.11.2014 16:00 9,5 C 78 % 1021,6 hPa 0,0 l/m 0,0 km/h (0 Bft) SO 135 5,9 C 7,8 C 0,0 km/h (0 Bft)
22.11.2014 16:05 9,3 C 78 % 1021,6 hPa 0,0 l/m 0,0 km/h (0 Bft) SO 135 5,7 C 7,8 C 0,0 km/h (0 Bft)
22.11.2014 16:10 9,2 C 78 % 1021,6 hPa 0,0 l/m 0,0 km/h (0 Bft) SO 135 5,6 C 7,8 C 0,0 km/h (0 Bft)
22.11.2014 16:15 9,0 C 78 % 1021,6 hPa 0,0 l/m 0,0 km/h (0 Bft) SO 135 5,4 C 7,8 C 0,0 km/h (0 Bft)
22.11.2014 16:20 8,9 C 79 % 1021,6 hPa 0,0 l/m 0,0 km/h (0 Bft) SO 135 5,5 C 7,8 C 0,0 km/h (0 Bft)
22.11.2014 16:25 8,7 C 79 % 1021,6 hPa 0,0 l/m 0,0 km/h (0 Bft) SO 135 5,3 C 7,8 C 0,0 km/h (0 Bft)
22.11.2014 16:30 8,6 C 80 % 1021,6 hPa 0,0 l/m 0,0 km/h (0 Bft) SO 135 5,3 C 7,8 C 0,0 km/h (0 Bft)
22.11.2014 16:35 8,3 C 80 % 1021,6 hPa 0,0 l/m 0,0 km/h (0 Bft) SO 135 5,1 C 7,8 C 0,0 km/h (0 Bft)
22.11.2014 16:40 8,1 C 81 % 1021,3 hPa 0,0 l/m 0,0 km/h (0 Bft) SO 135 5,0 C 7,8 C 0,0 km/h (0 Bft)
22.11.2014 16:45 7,9 C 81 % 1021,3 hPa 0,0 l/m 0,0 km/h (0 Bft) SO 135 4,8 C 7,8 C 0,0 km/h (0 Bft)
22.11.2014 16:50 7,7 C 82 % 1021,3 hPa 0,0 l/m 0,0 km/h (0 Bft) SO 135 4,8 C 7,8 C 0,0 km/h (0 Bft)
22.11.2014 16:55 7,6 C 82 % 1021,3 hPa 0,0 l/m 0,0 km/h (0 Bft) SO 135 4,7 C 7,8 C 0,0 km/h (0 Bft)
22.11.2014 17:00 7,5 C 83 % 1021,4 hPa 0,0 l/m 0,0 km/h (0 Bft) SO 135 4,8 C 7,8 C 0,0 km/h (0 Bft)
22.11.2014 17:05 6,4 C 82 % 1021,4 hPa 0,0 l/m 0,0 km/h (0 Bft) SO 135 3,6 C 7,8 C 0,0 km/h (0 Bft)
22.11.2014 17:10 6,0 C 82 % 1021,4 hPa 0,0 l/m 0,0 km/h (0 Bft) SO 135 3,2 C 7,8 C 0,0 km/h (0 Bft)
22.11.2014 17:15 6,2 C 84 % 1021,4 hPa 0,0 l/m 0,0 km/h (0 Bft) SO 135 3,7 C 7,8 C 0,0 km/h (0 Bft)
22.11.2014 17:20 6,6 C 85 % 1021,5 hPa 0,0 l/m 0,0 km/h (0 Bft) SO 135 4,3 C 7,8 C 0,0 km/h (0 Bft)
22.11.2014 17:25 6,0 C 85 % 1021,5 hPa 0,0 l/m 0,0 km/h (0 Bft) SO 135 3,7 C 7,8 C 0,0 km/h (0 Bft)
22.11.2014 17:30 5,5 C 86 % 1021,5 hPa 0,0 l/m 0,0 km/h (0 Bft) SO 135 3,3 C 7,8 C 0,0 km/h (0 Bft)
22.11.2014 17:33 5,1 C 86 % 1021,5 hPa 0,0 l/m 0,0 km/h (0 Bft) SO 135 3,0 C 7,8 C 0,0 km/h (0 Bft)
22.11.2014 17:35 5,1 C 86 % 1021,5 hPa 0,0 l/m 0,0 km/h (0 Bft) SO 135 3,0 C 7,8 C 0,0 km/h (0 Bft)
22.11.2014 17:40 4,9 C 86 % 1021,8 hPa 0,0 l/m 0,0 km/h (0 Bft) SO 135 2,8 C 7,8 C 0,0 km/h (0 Bft)
22.11.2014 17:45 4,5 C 86 % 1021,8 hPa 0,0 l/m 0,0 km/h (0 Bft) SO 135 2,4 C 7,8 C 0,0 km/h (0 Bft)
22.11.2014 17:50 4,5 C 86 % 1021,8 hPa 0,0 l/m 0,0 km/h (0 Bft) SO 135 2,4 C 7,8 C 0,0 km/h (0 Bft)
22.11.2014 17:55 4,6 C 87 % 1021,8 hPa 0,0 l/m 0,0 km/h (0 Bft) SO 135 2,6 C 7,8 C 0,0 km/h (0 Bft)
22.11.2014 18:00 4,5 C 87 % 1022,0 hPa 0,0 l/m 0,0 km/h (0 Bft) SO 135 2,5 C 7,8 C 0,0 km/h (0 Bft)
22.11.2014 18:05 4,2 C 87 % 1022,0 hPa 0,0 l/m 0,0 km/h (0 Bft) SO 135 2,2 C 7,8 C 0,0 km/h (0 Bft)
22.11.2014 18:10 4,1 C 87 % 1022,0 hPa 0,0 l/m 0,0 km/h (0 Bft) SO 135 2,1 C 7,8 C 0,0 km/h (0 Bft)
22.11.2014 18:15 4,0 C 88 % 1022,0 hPa 0,0 l/m 0,0 km/h (0 Bft) SO 135 2,2 C 7,8 C 0,0 km/h (0 Bft)
22.11.2014 18:20 3,6 C 88 % 1022,0 hPa 0,0 l/m 0,0 km/h (0 Bft) SO 135 1,8 C 7,8 C 0,0 km/h (0 Bft)
22.11.2014 18:25 3,6 C 88 % 1022,0 hPa 0,0 l/m 0,0 km/h (0 Bft) SO 135 1,8 C 7,8 C 0,0 km/h (0 Bft)
22.11.2014 18:30 3,4 C 88 % 1022,0 hPa 0,0 l/m 0,0 km/h (0 Bft) SO 135 1,6 C 7,8 C 0,0 km/h (0 Bft)
22.11.2014 18:35 3,2 C 88 % 1022,0 hPa 0,0 l/m 0,0 km/h (0 Bft) SO 135 1,4 C 7,8 C 0,0 km/h (0 Bft)
22.11.2014 18:40 3,4 C 89 % 1022,0 hPa 0,0 l/m 0,0 km/h (0 Bft) SO 135 1,8 C 7,8 C 0,0 km/h (0 Bft)
22.11.2014 18:45 3,5 C 89 % 1022,0 hPa 0,0 l/m 0,0 km/h (0 Bft) SO 135 1,9 C 7,8 C 0,0 km/h (0 Bft)
22.11.2014 18:50 3,3 C 89 % 1022,0 hPa 0,0 l/m 0,0 km/h (0 Bft) SO 135 1,7 C 7,8 C 0,0 km/h (0 Bft)
22.11.2014 18:55 3,3 C 89 % 1022,0 hPa 0,0 l/m 0,0 km/h (0 Bft) SO 135 1,7 C 7,8 C 0,0 km/h (0 Bft)
22.11.2014 19:00 3,3 C 89 % 1022,1 hPa 0,0 l/m 0,0 km/h (0 Bft) SO 135 1,7 C 7,8 C 0,0 km/h (0 Bft)
22.11.2014 19:05 3,2 C 89 % 1022,1 hPa 0,0 l/m 0,0 km/h (0 Bft) SO 135 1,6 C 7,8 C 0,0 km/h (0 Bft)
22.11.2014 19:10 3,3 C 90 % 1022,1 hPa 0,0 l/m 0,0 km/h (0 Bft) SO 135 1,8 C 7,8 C 0,0 km/h (0 Bft)
22.11.2014 19:15 3,2 C 90 % 1022,1 hPa 0,0 l/m 0,0 km/h (0 Bft) SO 135 1,7 C 7,8 C 0,0 km/h (0 Bft)
22.11.2014 19:20 3,2 C 90 % 1022,2 hPa 0,0 l/m 0,0 km/h (0 Bft) SO 135 1,7 C 7,8 C 0,0 km/h (0 Bft)
22.11.2014 19:25 3,1 C 90 % 1022,2 hPa 0,0 l/m 0,0 km/h (0 Bft) SO 135 1,6 C 7,8 C 0,0 km/h (0 Bft)
22.11.2014 19:30 2,9 C 91 % 1022,2 hPa 0,0 l/m 0,0 km/h (0 Bft) SO 135 1,6 C 7,8 C 0,0 km/h (0 Bft)
22.11.2014 19:35 2,6 C 91 % 1022,2 hPa 0,0 l/m 0,0 km/h (0 Bft) SO 135 1,3 C 7,8 C 0,0 km/h (0 Bft)
22.11.2014 19:40 2,7 C 91 % 1022,2 hPa 0,0 l/m 0,0 km/h (0 Bft) SO 135 1,4 C 7,8 C 0,0 km/h (0 Bft)
22.11.2014 19:45 2,9 C 91 % 1022,2 hPa 0,0 l/m 0,0 km/h (0 Bft) SO 135 1,6 C 7,8 C 0,0 km/h (0 Bft)
22.11.2014 19:50 3,0 C 90 % 1022,2 hPa 0,0 l/m 0,0 km/h (0 Bft) SO 135 1,5 C 7,8 C 0,0 km/h (0 Bft)
22.11.2014 19:55 2,8 C 91 % 1022,2 hPa 0,0 l/m 0,0 km/h (0 Bft) SO 135 1,5 C 7,8 C 0,0 km/h (0 Bft)
22.11.2014 20:00 2,5 C 91 % 1022,2 hPa 0,0 l/m 0,0 km/h (0 Bft) SO 135 1,2 C 7,8 C 0,0 km/h (0 Bft)
22.11.2014 20:05 2,4 C 91 % 1022,2 hPa 0,0 l/m 0,0 km/h (0 Bft) SO 135 1,1 C 7,8 C 0,0 km/h (0 Bft)
22.11.2014 20:10 2,4 C 91 % 1022,2 hPa 0,0 l/m 0,0 km/h (0 Bft) SO 135 1,1 C 7,8 C 0,0 km/h (0 Bft)
22.11.2014 20:15 2,7 C 92 % 1022,2 hPa 0,0 l/m 0,0 km/h (0 Bft) SO 135 1,5 C 7,8 C 0,0 km/h (0 Bft)
22.11.2014 20:20 2,4 C 92 % 1022,2 hPa 0,0 l/m 0,0 km/h (0 Bft) SO 135 1,2 C 7,8 C 0,0 km/h (0 Bft)
22.11.2014 20:25 2,4 C 92 % 1022,2 hPa 0,0 l/m 0,0 km/h (0 Bft) SO 135 1,2 C 7,8 C 0,0 km/h (0 Bft)
22.11.2014 20:30 2,5 C 92 % 1022,2 hPa 0,0 l/m 0,0 km/h (0 Bft) SO 135 1,3 C 7,8 C 0,0 km/h (0 Bft)
22.11.2014 20:33 2,4 C 92 % 1022,2 hPa 0,0 l/m 0,0 km/h (0 Bft) SO 135 1,2 C 7,8 C 0,0 km/h (0 Bft)
22.11.2014 20:35 2,4 C 92 % 1022,2 hPa 0,0 l/m 0,0 km/h (0 Bft) SO 135 1,2 C 7,8 C 0,0 km/h (0 Bft)
22.11.2014 20:40 2,3 C 92 % 1022,3 hPa 0,0 l/m 0,0 km/h (0 Bft) SO 135 1,1 C 7,8 C 0,0 km/h (0 Bft)
22.11.2014 20:45 2,6 C 92 % 1022,3 hPa 0,0 l/m 0,0 km/h (0 Bft) SO 135 1,4 C 7,8 C 0,0 km/h (0 Bft)
22.11.2014 20:50 2,7 C 92 % 1022,3 hPa 0,0 l/m 0,0 km/h (0 Bft) SO 135 1,5 C 7,8 C 0,0 km/h (0 Bft)
22.11.2014 20:55 2,4 C 92 % 1022,3 hPa 0,0 l/m 0,0 km/h (0 Bft) SO 135 1,2 C 7,8 C 0,0 km/h (0 Bft)
22.11.2014 21:00 2,4 C 92 % 1022,4 hPa 0,0 l/m 0,0 km/h (0 Bft) SO 135 1,2 C 7,8 C 0,0 km/h (0 Bft)
22.11.2014 21:05 2,5 C 92 % 1022,4 hPa 0,0 l/m 0,0 km/h (0 Bft) SO 135 1,3 C 7,8 C 0,0 km/h (0 Bft)
22.11.2014 21:10 2,4 C 92 % 1022,4 hPa 0,0 l/m 0,0 km/h (0 Bft) SO 135 1,2 C 7,8 C 0,0 km/h (0 Bft)
22.11.2014 21:15 2,2 C 92 % 1022,4 hPa 0,0 l/m 0,0 km/h (0 Bft) SO 135 1,0 C 7,8 C 0,0 km/h (0 Bft)
22.11.2014 21:20 2,2 C 92 % 1022,5 hPa 0,0 l/m 0,0 km/h (0 Bft) SO 135 1,0 C 7,8 C 0,0 km/h (0 Bft)
22.11.2014 21:25 2,2 C 93 % 1022,5 hPa 0,0 l/m 0,0 km/h (0 Bft) SO 135 1,2 C 7,8 C 0,0 km/h (0 Bft)
22.11.2014 21:30 2,3 C 93 % 1022,5 hPa 0,0 l/m 0,0 km/h (0 Bft) SO 135 1,3 C 7,8 C 0,0 km/h (0 Bft)
22.11.2014 21:35 2,1 C 93 % 1022,5 hPa 0,0 l/m 0,0 km/h (0 Bft) SO 135 1,1 C 7,8 C 0,0 km/h (0 Bft)
22.11.2014 21:40 2,1 C 93 % 1022,5 hPa 0,0 l/m 0,0 km/h (0 Bft) SO 135 1,1 C 7,8 C 0,0 km/h (0 Bft)
22.11.2014 21:45 2,0 C 93 % 1022,5 hPa 0,0 l/m 0,0 km/h (0 Bft) SO 135 1,0 C 7,8 C 0,0 km/h (0 Bft)
22.11.2014 21:50 2,2 C 93 % 1022,5 hPa 0,0 l/m 0,0 km/h (0 Bft) SO 135 1,2 C 7,8 C 0,0 km/h (0 Bft)
22.11.2014 21:55 2,1 C 93 % 1022,5 hPa 0,0 l/m 0,0 km/h (0 Bft) SO 135 1,1 C 7,8 C 0,0 km/h (0 Bft)
22.11.2014 22:00 2,3 C 93 % 1022,6 hPa 0,0 l/m 0,0 km/h (0 Bft) SO 135 1,3 C 7,8 C 0,0 km/h (0 Bft)
22.11.2014 22:05 1,8 C 93 % 1022,6 hPa 0,0 l/m 0,0 km/h (0 Bft) SO 135 0,8 C 7,8 C 0,0 km/h (0 Bft)
22.11.2014 22:10 2,1 C 93 % 1022,6 hPa 0,0 l/m 0,0 km/h (0 Bft) SO 135 1,1 C 7,8 C 0,0 km/h (0 Bft)
22.11.2014 22:15 2,2 C 93 % 1022,6 hPa 0,0 l/m 0,0 km/h (0 Bft) SO 135 1,2 C 7,8 C 0,0 km/h (0 Bft)
22.11.2014 22:20 2,1 C 93 % 1022,7 hPa 0,0 l/m 0,0 km/h (0 Bft) SO 135 1,1 C 7,8 C 0,0 km/h (0 Bft)
22.11.2014 22:25 2,2 C 93 % 1022,7 hPa 0,0 l/m 0,0 km/h (0 Bft) SO 135 1,2 C 7,8 C 0,0 km/h (0 Bft)
22.11.2014 22:30 2,3 C 94 % 1022,7 hPa 0,0 l/m 0,0 km/h (0 Bft) SO 135 1,4 C 7,8 C 0,0 km/h (0 Bft)
22.11.2014 22:35 2,1 C 94 % 1022,7 hPa 0,0 l/m 0,0 km/h (0 Bft) SO 135 1,2 C 7,8 C 0,0 km/h (0 Bft)
22.11.2014 22:40 2,4 C 94 % 1022,6 hPa 0,0 l/m 0,0 km/h (0 Bft) SO 135 1,5 C 7,8 C 0,0 km/h (0 Bft)
22.11.2014 22:45 2,3 C 94 % 1022,6 hPa 0,0 l/m 0,0 km/h (0 Bft) SO 135 1,4 C 7,8 C 0,0 km/h (0 Bft)
22.11.2014 22:50 1,9 C 94 % 1022,6 hPa 0,0 l/m 0,0 km/h (0 Bft) SO 135 1,0 C 7,8 C 0,0 km/h (0 Bft)
22.11.2014 22:55 2,1 C 94 % 1022,6 hPa 0,0 l/m 0,0 km/h (0 Bft) SO 135 1,2 C 7,8 C 0,0 km/h (0 Bft)
22.11.2014 23:00 1,9 C 94 % 1022,5 hPa 0,0 l/m 0,0 km/h (0 Bft) SO 135 1,0 C 7,8 C 0,0 km/h (0 Bft)
22.11.2014 23:05 2,7 C 94 % 1022,5 hPa 0,0 l/m 0,0 km/h (0 Bft) SO 135 1,8 C 7,8 C 0,0 km/h (0 Bft)
22.11.2014 23:10 2,2 C 94 % 1022,5 hPa 0,0 l/m 0,0 km/h (0 Bft) SO 135 1,3 C 7,8 C 0,0 km/h (0 Bft)
22.11.2014 23:15 1,9 C 94 % 1022,5 hPa 0,0 l/m 0,0 km/h (0 Bft) SO 135 1,0 C 7,8 C 0,0 km/h (0 Bft)
22.11.2014 23:20 1,7 C 94 % 1022,7 hPa 0,0 l/m 0,0 km/h (0 Bft) SO 135 0,8 C 7,8 C 0,0 km/h (0 Bft)
22.11.2014 23:25 2,3 C 94 % 1022,7 hPa 0,0 l/m 0,0 km/h (0 Bft) SO 135 1,4 C 7,8 C 0,0 km/h (0 Bft)
22.11.2014 23:30 2,1 C 94 % 1022,7 hPa 0,0 l/m 0,0 km/h (0 Bft) SO 135 1,2 C 7,8 C 0,0 km/h (0 Bft)
22.11.2014 23:35 1,9 C 95 % 1022,7 hPa 0,0 l/m 0,0 km/h (0 Bft) SO 135 1,2 C 7,8 C 0,0 km/h (0 Bft)
22.11.2014 23:40 1,7 C 95 % 1022,5 hPa 0,0 l/m 0,0 km/h (0 Bft) SO 135 1,0 C 7,8 C 0,0 km/h (0 Bft)
22.11.2014 23:45 1,8 C 95 % 1022,5 hPa 0,0 l/m 0,0 km/h (0 Bft) SO 135 1,1 C 7,8 C 0,0 km/h (0 Bft)
22.11.2014 23:50 2,1 C 94 % 1022,5 hPa 0,0 l/m 0,0 km/h (0 Bft) SO 135 1,2 C 7,8 C 0,0 km/h (0 Bft)
22.11.2014 23:55 1,8 C 95 % 1022,5 hPa 0,0 l/m 0,0 km/h (0 Bft) SO 135 1,1 C 7,8 C 0,0 km/h (0 Bft)
_ Min-Zeit 23:40 14:20 01:35 - 23:55 - - 22:05 23:55 23:55
Minimum _ 1,7 C 60 % 1020,4 hPa - 0,0 km/h (0 Bft) - - 0,8 C 7,8 C 0,0 km/h (0 Bft)
_ Max-Zeit 14:10 09:00 23:35 23:55 23:55 - - 11:35 23:55 23:55
Maximum _ 13,7 C 96 % 1022,7 hPa 0,0 l/m 0,0 km/h
SO (0 Bft)
- - 9,3 C 7,8 C 0,0 km/h
SO (0 Bft)
Durchschnitt _ 5,9 C 90 % 1021,6 hPa #0,0 l/m 0,0 km/h (0 Bft) - - - 4,3 C 7,8 C 0,0 km/h (0 Bft)